contact:dominique.lefevre@mio.osupytheas.fr, maurice.libes@osupytheas.fr, didier.mallarino@osupytheas.fr
Project:EMSO http://www.emso-fr.org/EMSO-France
Depth: 2436.0 m
Title:EMSO Ligure Ouest : Data MII capteur AQUADOPP
Date,Latitude,Longitude,X_East,Y_North,Z_Up,Amplitude_X,Amplitude_Y,Amplitude_Z,Batterie,SoundSpeed,Heading,Pitch,Roll,Pressure,TIS,Speed,Direction
, degrees North, degrees East, m.s-1, m.s-1,m.s-1, 1, 1, 1, Volt, m.s-1, degree, degree, degree, dbar, degree_C, m.s-1, degree
2023-01-24T13:10:02,42.805,6.029,-0.027,-0.004,-0.019,102.0,105.0,103.0,13.4,1505.1,335.0,-0.8,1.8,2471.716,13.27,0.027,261.6
2023-01-24T13:13:03,42.805,6.029,-0.03,-0.007,0.003,104.0,104.0,102.0,13.3,1505.2,338.0,-0.8,1.8,2471.494,13.28,0.03,256.9
2023-01-24T13:16:03,42.805,6.029,-0.023,0.003,0.004,104.0,102.0,103.0,13.3,1505.2,335.5,-0.8,1.9,2471.378,13.28,0.023,277.4
2023-01-24T13:19:03,42.805,6.029,-0.029,-0.003,-0.017,103.0,104.0,101.0,13.3,1505.2,324.5,-0.8,1.8,2471.236,13.28,0.029,264.1
2023-01-24T13:22:03,42.805,6.029,-0.029,0.007,0.007,102.0,103.0,103.0,13.4,1505.2,324.3,-0.7,1.8,2471.147,13.29,0.029,283.6
2023-01-24T13:25:03,42.805,6.029,-0.014,0.014,-0.008,104.0,101.0,101.0,13.4,1505.2,323.2,-0.7,1.9,2471.152,13.29,0.019,315.0
2023-01-24T13:28:03,42.805,6.029,0.001,-0.012,0.002,103.0,103.0,103.0,13.4,1505.2,327.8,-0.7,1.8,2471.099,13.29,0.012,175.2
2023-01-24T13:31:03,42.805,6.029,-0.038,-0.018,0.004,103.0,103.0,102.0,13.3,1505.2,325.0,-0.8,1.8,2471.108,13.29,0.042,244.7
2023-01-24T13:34:03,42.805,6.029,-0.038,0.018,0.004,104.0,104.0,102.0,13.4,1505.2,329.3,-0.8,1.8,2471.114,13.29,0.042,295.3
2023-01-24T13:37:03,42.805,6.029,-0.027,-0.006,-0.031,102.0,104.0,103.0,13.3,1505.2,324.7,-0.7,1.8,2471.087,13.29,0.027,257.5
2023-01-24T13:40:03,42.805,6.029,-0.005,-0.002,0.012,104.0,104.0,102.0,13.4,1505.2,331.8,-0.8,1.8,2471.113,13.29,0.005,248.2
2023-01-24T13:43:03,42.805,6.029,-0.034,0.0,0.02,103.0,103.0,102.0,13.4,1505.2,326.5,-0.8,1.9,2471.072,13.29,0.034,270.0
2023-01-24T13:46:03,42.805,6.029,-0.007,0.005,0.002,102.0,104.0,103.0,13.4,1505.2,325.5,-0.8,1.9,2471.066,13.29,0.008,305.5
2023-01-24T13:49:03,42.805,6.029,-0.016,0.013,-0.006,104.0,101.0,103.0,13.4,1505.2,331.6,-0.8,1.8,2471.047,13.29,0.02,309.1
2023-01-24T13:52:03,42.805,6.029,0.002,0.007,-0.012,103.0,103.0,102.0,13.4,1505.2,324.7,-0.8,1.8,2471.037,13.29,0.007,15.9
2023-01-24T13:55:03,42.805,6.029,-0.017,0.003,-0.025,104.0,104.0,103.0,13.4,1505.2,331.0,-0.8,1.8,2471.091,13.29,0.017,280.0
2023-01-24T13:58:03,42.805,6.029,-0.05,0.006,0.015,104.0,103.0,103.0,13.4,1505.2,333.8,-0.8,1.8,2471.08,13.29,0.05,276.8
2023-01-24T14:04:03,42.805,6.029,-0.031,-0.004,-0.047,103.0,104.0,103.0,13.4,1505.2,339.5,-0.8,1.8,2471.194,13.29,0.031,262.7
2023-01-24T14:07:03,42.805,6.029,-0.037,0.012,0.006,104.0,103.0,102.0,13.4,1505.2,337.6,-0.8,1.8,2471.126,13.29,0.038,288.0
2023-01-24T14:10:03,42.805,6.029,-0.019,-0.001,-0.016,105.0,102.0,103.0,13.4,1505.2,330.9,-0.8,1.8,2471.113,13.29,0.019,267.0
2023-01-24T14:13:03,42.805,6.029,-0.027,0.0,0.017,104.0,105.0,103.0,13.3,1505.2,328.1,-0.8,1.8,2471.112,13.29,0.026,270.0
2023-01-24T14:16:03,42.805,6.029,-0.035,-0.003,-0.025,104.0,104.0,103.0,13.4,1505.2,320.5,-0.7,1.8,2471.118,13.29,0.035,265.1
2023-01-24T14:19:03,42.805,6.029,-0.033,-0.008,-0.044,104.0,103.0,103.0,13.4,1505.2,322.8,-0.8,1.8,2471.094,13.29,0.033,256.4
2023-01-24T14:22:03,42.805,6.029,-0.031,0.009,0.014,103.0,103.0,103.0,13.4,1505.2,337.0,-0.8,1.8,2471.119,13.29,0.032,286.2
2023-01-24T14:25:03,42.805,6.029,-0.04,-0.004,-0.013,102.0,103.0,103.0,13.3,1505.2,336.6,-0.8,1.8,2471.066,13.29,0.04,264.3
2023-01-24T14:28:03,42.805,6.029,-0.016,0.008,0.005,104.0,105.0,103.0,13.4,1505.2,333.7,-0.8,1.8,2471.085,13.29,0.017,296.6
2023-01-24T14:31:03,42.805,6.029,-0.038,0.004,0.028,103.0,103.0,102.0,13.4,1505.2,315.5,-0.7,1.8,2471.122,13.29,0.038,276.0
2023-01-24T14:34:03,42.805,6.029,-0.037,0.0,-0.002,103.0,103.0,103.0,13.4,1505.2,323.4,-0.8,1.8,2471.103,13.29,0.037,270.0
2023-01-24T14:37:03,42.805,6.029,-0.025,-0.002,0.001,104.0,103.0,103.0,13.3,1505.2,323.1,-0.7,1.8,2471.105,13.29,0.025,265.4
2023-01-24T14:40:03,42.805,6.029,-0.023,-0.005,0.0,103.0,102.0,103.0,13.4,1505.2,329.4,-0.8,1.8,2471.113,13.29,0.023,257.7
2023-01-24T14:43:03,42.805,6.029,-0.023,-0.013,-0.019,103.0,102.0,103.0,13.4,1505.2,322.1,-0.8,1.8,2471.122,13.29,0.026,240.5
2023-01-24T14:46:03,42.805,6.029,-0.02,-0.006,-0.01,103.0,104.0,103.0,13.3,1505.2,335.4,-0.8,1.8,2471.072,13.29,0.02,253.3
2023-01-24T14:49:03,42.805,6.029,-0.009,-0.01,-0.022,103.0,104.0,103.0,13.4,1505.2,319.7,-0.8,1.8,2471.081,13.29,0.013,222.0
2023-01-24T14:52:03,42.805,6.029,-0.035,-0.013,-0.003,104.0,102.0,103.0,13.4,1505.2,317.5,-0.8,1.8,2471.103,13.29,0.037,249.6
2023-01-24T14:55:03,42.805,6.029,-0.048,0.004,-0.025,104.0,103.0,102.0,13.4,1505.2,327.9,-0.8,1.8,2471.099,13.29,0.048,274.8
2023-01-24T14:58:03,42.805,6.029,-0.039,0.005,-0.014,104.0,103.0,103.0,13.4,1505.2,326.1,-0.8,1.8,2471.101,13.29,0.039,277.3
2023-01-24T15:04:03,42.805,6.029,-0.033,-0.001,0.005,103.0,103.0,103.0,13.4,1505.2,321.4,-0.8,1.8,2471.142,13.29,0.033,268.3
2023-01-24T15:07:03,42.805,6.029,-0.019,-0.004,-0.005,104.0,106.0,101.0,13.4,1505.2,329.6,-0.8,1.8,2471.13,13.29,0.019,258.1
2023-01-24T15:10:03,42.805,6.029,-0.047,0.012,0.013,104.0,104.0,102.0,13.3,1505.2,329.6,-0.8,1.9,2471.144,13.29,0.048,284.3
2023-01-24T15:13:03,42.805,6.029,-0.05,0.016,-0.003,104.0,103.0,102.0,13.4,1505.2,338.0,-0.7,1.8,2471.124,13.29,0.052,287.7
2023-01-24T15:16:03,42.805,6.029,-0.015,-0.031,-0.022,103.0,104.0,102.0,13.4,1505.2,331.4,-0.8,1.8,2471.066,13.29,0.034,205.8
2023-01-24T15:19:03,42.805,6.029,-0.063,0.004,0.008,103.0,105.0,102.0,13.3,1505.2,328.9,-0.8,1.8,2471.079,13.29,0.063,273.6
2023-01-24T15:22:03,42.805,6.029,-0.03,-0.018,-0.021,104.0,105.0,102.0,13.3,1505.2,327.5,-0.8,1.8,2471.062,13.29,0.034,239.0
2023-01-24T15:25:03,42.805,6.029,-0.047,-0.021,-0.036,104.0,104.0,102.0,13.4,1505.2,315.0,-0.8,1.8,2471.083,13.29,0.051,245.9
2023-01-24T15:28:03,42.805,6.029,-0.043,-0.003,-0.003,104.0,103.0,102.0,13.4,1505.2,328.8,-0.7,1.8,2471.068,13.29,0.043,266.0
2023-01-24T15:31:03,42.805,6.029,-0.035,-0.014,0.003,102.0,104.0,103.0,13.3,1505.2,324.3,-0.8,1.8,2471.073,13.29,0.037,248.2
2023-01-24T15:34:03,42.805,6.029,-0.015,-0.027,-0.009,103.0,104.0,102.0,13.4,1505.2,320.7,-0.8,1.8,2471.039,13.29,0.03,209.1
2023-01-24T15:37:03,42.805,6.029,-0.031,0.004,0.001,101.0,104.0,103.0,13.4,1505.2,322.3,-0.8,1.8,2471.096,13.29,0.031,277.3
2023-01-24T15:40:03,42.805,6.029,-0.051,-0.001,-0.015,103.0,103.0,102.0,13.4,1505.2,332.1,-0.8,1.8,2471.077,13.29,0.051,268.9
2023-01-24T15:43:03,42.805,6.029,-0.023,-0.016,-0.012,101.0,102.0,103.0,13.4,1505.2,326.5,-0.8,1.8,2471.052,13.29,0.028,235.2
2023-01-24T15:46:03,42.805,6.029,-0.029,0.006,-0.002,103.0,103.0,102.0,13.3,1505.2,333.8,-0.8,1.8,2471.072,13.29,0.029,281.7
2023-01-24T15:49:03,42.805,6.029,-0.032,-0.001,-0.003,103.0,102.0,102.0,13.4,1505.2,323.7,-0.7,1.8,2471.076,13.29,0.032,268.2
2023-01-24T15:52:03,42.805,6.029,-0.028,0.008,-0.009,103.0,102.0,102.0,13.3,1505.2,337.3,-0.7,1.8,2471.037,13.29,0.029,285.9
2023-01-24T15:55:03,42.805,6.029,-0.053,0.0,-0.022,103.0,102.0,102.0,13.3,1505.2,331.3,-0.7,1.9,2471.091,13.29,0.053,270.0
2023-01-24T15:58:03,42.805,6.029,-0.047,-0.005,-0.005,102.0,101.0,102.0,13.4,1505.2,322.7,-0.8,1.8,2471.075,13.29,0.047,263.9
2023-01-24T16:04:03,42.805,6.029,-0.03,-0.005,-0.011,102.0,101.0,102.0,13.4,1505.2,339.4,-0.7,1.8,2471.133,13.28,0.03,260.5
2023-01-24T16:07:03,42.805,6.029,-0.054,-0.007,-0.038,102.0,102.0,102.0,13.4,1505.2,318.1,-0.8,1.8,2471.129,13.29,0.054,262.6
2023-01-24T16:10:03,42.805,6.029,-0.035,0.01,-0.008,103.0,101.0,102.0,13.4,1505.2,322.7,-0.8,1.9,2471.086,13.29,0.036,285.9
2023-01-24T16:13:03,42.805,6.029,-0.05,-0.024,-0.02,101.0,103.0,102.0,13.4,1505.2,321.2,-0.7,1.8,2471.138,13.29,0.055,244.4
2023-01-24T16:16:03,42.805,6.029,-0.049,0.017,-0.002,103.0,101.0,102.0,13.3,1505.2,336.3,-0.8,1.8,2471.102,13.29,0.051,289.1
2023-01-24T16:19:03,42.805,6.029,-0.035,0.015,0.026,101.0,101.0,102.0,13.4,1505.2,335.6,-0.7,1.8,2471.122,13.29,0.038,293.2
2023-01-24T16:22:03,42.805,6.029,-0.019,-0.011,-0.003,102.0,101.0,102.0,13.4,1505.2,323.7,-0.8,1.8,2471.067,13.29,0.021,239.9
2023-01-24T16:25:03,42.805,6.029,-0.018,-0.003,0.0,101.0,102.0,102.0,13.4,1505.2,329.3,-0.7,1.8,2471.066,13.29,0.018,260.5
2023-01-24T16:28:03,42.805,6.029,-0.055,0.018,0.025,101.0,103.0,101.0,13.4,1505.2,324.4,-0.8,1.8,2471.101,13.29,0.057,288.1
2023-01-24T16:31:03,42.805,6.029,-0.029,-0.011,-0.012,101.0,102.0,102.0,13.4,1505.2,330.0,-0.8,1.8,2471.072,13.29,0.031,249.2
2023-01-24T16:34:03,42.805,6.029,-0.035,0.004,-0.021,101.0,101.0,101.0,13.4,1505.2,335.9,-0.8,1.8,2471.103,13.29,0.035,276.5
2023-01-24T16:37:03,42.805,6.029,-0.045,-0.004,-0.023,102.0,102.0,101.0,13.3,1505.2,337.6,-0.8,1.8,2471.074,13.29,0.045,264.9
2023-01-24T16:40:03,42.805,6.029,-0.031,-0.009,0.0,103.0,103.0,102.0,13.4,1505.2,326.7,-0.8,1.8,2471.04,13.29,0.032,253.8
2023-01-24T16:43:03,42.805,6.029,-0.043,-0.002,-0.015,102.0,103.0,101.0,13.3,1505.2,328.8,-0.8,1.8,2471.051,13.29,0.043,267.3
2023-01-24T16:46:03,42.805,6.029,-0.025,-0.02,-0.009,103.0,103.0,101.0,13.3,1505.2,328.3,-0.7,1.9,2471.086,13.29,0.032,231.3
2023-01-24T16:49:03,42.805,6.029,-0.017,0.022,0.013,101.0,103.0,101.0,13.4,1505.2,334.2,-0.8,1.8,2471.073,13.29,0.027,322.3
2023-01-24T16:52:03,42.805,6.029,-0.026,-0.002,0.001,102.0,102.0,103.0,13.3,1505.2,325.3,-0.7,1.8,2471.097,13.29,0.026,265.6
2023-01-24T16:55:03,42.805,6.029,-0.057,-0.003,-0.016,101.0,102.0,101.0,13.3,1505.2,326.5,-0.8,1.8,2471.067,13.29,0.057,267.0
2023-01-24T16:58:03,42.805,6.029,-0.043,0.002,-0.006,102.0,102.0,101.0,13.4,1505.2,331.6,-0.8,1.8,2471.069,13.29,0.043,272.7
2023-01-24T17:04:03,42.805,6.029,-0.016,0.0,0.014,103.0,100.0,103.0,13.3,1505.2,334.2,-0.8,1.8,2471.142,13.28,0.016,270.0
2023-01-24T17:07:03,42.805,6.029,-0.008,-0.009,0.009,102.0,104.0,102.0,13.3,1505.2,318.1,-0.8,1.8,2471.127,13.29,0.012,221.6
2023-01-24T17:10:03,42.805,6.029,-0.024,-0.007,-0.016,101.0,102.0,102.0,13.4,1505.2,326.7,-0.8,1.8,2471.101,13.29,0.025,253.7
2023-01-24T17:13:03,42.805,6.029,-0.044,-0.015,-0.011,101.0,102.0,101.0,13.3,1505.2,328.0,-0.8,1.8,2471.134,13.29,0.046,251.2
2023-01-24T17:16:03,42.805,6.029,-0.052,0.008,-0.008,102.0,101.0,102.0,13.4,1505.2,336.0,-0.7,1.8,2471.097,13.29,0.052,278.7
2023-01-24T17:19:03,42.805,6.029,-0.026,-0.02,-0.034,103.0,101.0,103.0,13.3,1505.2,331.5,-0.8,1.8,2471.104,13.29,0.032,232.4
2023-01-24T17:22:03,42.805,6.029,-0.034,-0.001,0.035,104.0,101.0,101.0,13.4,1505.2,332.0,-0.8,1.8,2471.063,13.29,0.034,268.3
2023-01-24T17:25:03,42.805,6.029,-0.039,-0.004,-0.02,103.0,102.0,102.0,13.4,1505.2,331.0,-0.8,1.8,2471.049,13.29,0.039,264.1
2023-01-24T17:28:03,42.805,6.029,-0.038,-0.017,-0.036,102.0,102.0,102.0,13.4,1505.2,331.1,-0.8,1.8,2471.121,13.29,0.041,245.9
2023-01-24T17:31:03,42.805,6.029,-0.039,0.007,-0.021,101.0,102.0,102.0,13.4,1505.2,331.0,-0.8,1.8,2471.118,13.29,0.039,280.2
2023-01-24T17:34:03,42.805,6.029,-0.039,-0.015,-0.004,102.0,102.0,103.0,13.3,1505.2,317.5,-0.7,1.8,2471.111,13.29,0.041,249.0
2023-01-24T17:37:03,42.805,6.029,-0.053,-0.009,0.008,101.0,101.0,102.0,13.4,1505.2,331.4,-0.7,1.8,2471.104,13.29,0.053,260.4
2023-01-24T17:40:03,42.805,6.029,-0.033,0.024,0.039,103.0,101.0,103.0,13.3,1505.2,333.4,-0.8,1.8,2471.127,13.29,0.04,306.0
2023-01-24T17:43:03,42.805,6.029,-0.009,-0.022,-0.033,103.0,102.0,102.0,13.4,1505.2,331.3,-0.8,1.8,2471.107,13.29,0.023,202.2
2023-01-24T17:46:03,42.805,6.029,-0.015,-0.011,-0.012,103.0,100.0,102.0,13.4,1505.2,325.8,-0.8,1.8,2471.099,13.29,0.018,233.7
2023-01-24T17:49:03,42.805,6.029,-0.042,-0.002,-0.001,101.0,101.0,103.0,13.4,1505.2,329.4,-0.8,1.8,2471.099,13.29,0.042,267.3
2023-01-24T17:52:03,42.805,6.029,-0.025,0.0,0.016,101.0,103.0,102.0,13.4,1505.2,325.6,-0.7,1.8,2471.131,13.29,0.025,270.0
2023-01-24T17:55:03,42.805,6.029,-0.047,0.0,-0.039,102.0,103.0,102.0,13.4,1505.2,328.3,-0.8,1.8,2471.162,13.29,0.047,270.0
2023-01-24T17:58:03,42.805,6.029,-0.045,-0.004,-0.037,103.0,103.0,102.0,13.4,1505.2,339.3,-0.8,1.8,2471.162,13.29,0.045,264.9
2023-01-24T18:04:03,42.805,6.029,-0.012,0.003,0.0,103.0,102.0,101.0,13.4,1505.2,335.4,-0.8,1.8,2471.178,13.29,0.012,284.0
2023-01-24T18:07:03,42.805,6.029,-0.033,-0.009,0.021,103.0,103.0,103.0,13.3,1505.2,320.7,-0.7,1.8,2471.176,13.29,0.034,254.7
2023-01-24T18:10:03,42.805,6.029,-0.003,-0.02,0.006,102.0,102.0,102.0,13.4,1505.2,334.5,-0.7,1.8,2471.204,13.29,0.02,188.5
2023-01-24T18:13:03,42.805,6.029,-0.033,0.0,0.0,103.0,104.0,102.0,13.3,1505.2,325.3,-0.8,1.8,2471.143,13.29,0.033,270.0
2023-01-24T18:16:03,42.805,6.029,-0.065,-0.015,-0.058,101.0,105.0,100.0,13.4,1505.2,338.7,-0.7,1.8,2471.181,13.29,0.066,257.0
2023-01-24T18:19:03,42.805,6.029,-0.01,-0.005,0.004,103.0,101.0,102.0,13.4,1505.2,333.0,-0.8,1.8,2471.142,13.29,0.011,243.4
2023-01-24T18:22:03,42.805,6.029,-0.038,-0.001,-0.005,104.0,101.0,101.0,13.4,1505.2,329.6,-0.8,1.8,2471.164,13.29,0.038,268.5
2023-01-24T18:25:03,42.805,6.029,-0.042,-0.012,-0.016,102.0,101.0,101.0,13.4,1505.2,332.5,-0.7,1.8,2471.153,13.29,0.043,254.1
2023-01-24T18:28:03,42.805,6.029,-0.024,-0.006,-0.016,102.0,102.0,102.0,13.4,1505.2,337.1,-0.8,1.8,2471.135,13.29,0.024,256.0
2023-01-24T18:31:03,42.805,6.029,-0.012,0.0,0.003,103.0,102.0,102.0,13.4,1505.2,320.6,-0.8,1.8,2471.156,13.29,0.012,270.0
2023-01-24T18:34:03,42.805,6.029,-0.02,-0.014,-0.017,102.0,102.0,101.0,13.4,1505.2,321.2,-0.7,1.8,2471.166,13.29,0.024,235.0
2023-01-24T18:37:03,42.805,6.029,-0.03,0.001,0.011,102.0,102.0,102.0,13.3,1505.2,334.1,-0.7,1.8,2471.119,13.29,0.03,271.9
2023-01-24T18:40:03,42.805,6.029,-0.029,0.013,-0.016,102.0,102.0,102.0,13.4,1505.2,337.5,-0.8,1.8,2471.147,13.29,0.031,294.1
2023-01-24T18:43:03,42.805,6.029,-0.015,0.004,0.03,101.0,102.0,102.0,13.4,1505.2,334.6,-0.8,1.8,2471.161,13.29,0.015,284.9
2023-01-24T18:46:03,42.805,6.029,-0.029,0.0,0.02,102.0,102.0,102.0,13.4,1505.2,339.1,-0.8,1.9,2471.141,13.29,0.028,270.0
2023-01-24T18:49:03,42.805,6.029,-0.021,0.006,-0.014,102.0,102.0,101.0,13.4,1505.2,323.2,-0.8,1.8,2471.163,13.29,0.021,285.9
2023-01-24T18:52:03,42.805,6.029,-0.043,0.021,0.026,101.0,104.0,102.0,13.4,1505.2,328.2,-0.8,1.8,2471.223,13.29,0.047,296.0
2023-01-24T18:55:03,42.805,6.029,-0.023,0.0,-0.01,102.0,101.0,102.0,13.4,1505.2,338.7,-0.8,1.8,2471.164,13.29,0.023,270.0
2023-01-24T18:58:03,42.805,6.029,-0.028,-0.014,-0.012,102.0,101.0,102.0,13.3,1505.2,332.3,-0.8,1.8,2471.165,13.29,0.031,243.4
2023-01-24T19:04:03,42.805,6.029,-0.033,-0.019,-0.001,102.0,102.0,102.0,13.4,1505.2,338.0,-0.8,1.8,2471.243,13.29,0.038,240.1
2023-01-24T19:07:03,42.805,6.029,-0.03,0.0,-0.02,101.0,102.0,101.0,13.3,1505.2,331.7,-0.8,1.8,2471.224,13.29,0.03,270.0
2023-01-24T19:10:03,42.805,6.029,-0.038,-0.004,0.025,103.0,102.0,101.0,13.3,1505.2,334.2,-0.8,1.8,2471.24,13.29,0.038,264.0
2023-01-24T19:13:03,42.805,6.029,-0.015,-0.017,-0.021,102.0,100.0,100.0,13.4,1505.2,335.1,-0.8,1.8,2471.232,13.29,0.022,221.4
2023-01-24T19:16:03,42.805,6.029,-0.021,-0.03,-0.05,102.0,101.0,101.0,13.3,1505.2,324.0,-0.7,1.8,2471.195,13.29,0.036,215.0
2023-01-24T19:19:03,42.805,6.029,-0.022,0.007,0.021,102.0,101.0,101.0,13.4,1505.2,333.4,-0.8,1.8,2471.199,13.29,0.023,287.6
2023-01-24T19:22:03,42.805,6.029,-0.031,-0.005,-0.019,102.0,101.0,101.0,13.4,1505.2,333.8,-0.8,1.8,2471.196,13.29,0.031,260.8
2023-01-24T19:25:03,42.805,6.029,-0.033,-0.008,-0.011,101.0,101.0,101.0,13.4,1505.2,331.3,-0.8,1.8,2471.206,13.29,0.033,256.4
2023-01-24T19:28:03,42.805,6.029,-0.025,0.001,-0.014,100.0,102.0,102.0,13.4,1505.2,339.3,-0.7,1.8,2471.167,13.29,0.025,272.3
2023-01-24T19:31:03,42.805,6.029,-0.038,-0.01,-0.007,103.0,102.0,102.0,13.3,1505.2,335.4,-0.8,1.8,2471.207,13.29,0.039,255.3
2023-01-24T19:34:03,42.805,6.029,-0.02,-0.006,0.038,101.0,102.0,102.0,13.4,1505.2,322.9,-0.8,1.8,2471.209,13.29,0.02,253.3
2023-01-24T19:37:03,42.805,6.029,-0.047,-0.015,-0.02,101.0,102.0,102.0,13.3,1505.2,328.3,-0.8,1.8,2471.188,13.29,0.049,252.3
2023-01-24T19:40:03,42.805,6.029,-0.036,-0.011,-0.018,102.0,101.0,101.0,13.4,1505.2,335.8,-0.8,1.8,2471.167,13.29,0.037,253.0
2023-01-24T19:43:03,42.805,6.029,-0.039,-0.018,-0.011,101.0,102.0,101.0,13.4,1505.2,328.4,-0.7,1.8,2471.194,13.29,0.042,245.2
2023-01-24T19:46:03,42.805,6.029,-0.025,-0.025,0.002,103.0,102.0,101.0,13.3,1505.2,330.4,-0.7,1.8,2471.16,13.29,0.035,225.0
2023-01-24T19:49:03,42.805,6.029,-0.044,-0.003,-0.027,102.0,101.0,101.0,13.4,1505.2,333.0,-0.8,1.8,2471.18,13.29,0.044,266.1
2023-01-24T19:52:03,42.805,6.029,-0.05,0.02,-0.018,103.0,102.0,101.0,13.3,1505.2,328.7,-0.8,1.8,2471.215,13.29,0.053,291.8
2023-01-24T19:55:03,42.805,6.029,-0.032,-0.003,0.004,102.0,102.0,101.0,13.4,1505.2,334.6,-0.8,1.8,2471.196,13.29,0.032,264.6
2023-01-24T19:58:03,42.805,6.029,-0.034,-0.002,-0.004,102.0,102.0,101.0,13.3,1505.2,322.1,-0.8,1.8,2471.219,13.29,0.034,266.6
2023-01-24T20:04:03,42.805,6.029,-0.04,-0.014,0.0,102.0,102.0,101.0,13.4,1505.2,322.9,-0.8,1.8,2471.283,13.29,0.042,250.7
2023-01-24T20:07:03,42.805,6.029,-0.028,-0.013,-0.014,102.0,101.0,101.0,13.4,1505.2,328.0,-0.8,1.8,2471.248,13.29,0.03,245.1
2023-01-24T20:10:03,42.805,6.029,-0.02,-0.011,-0.002,102.0,102.0,101.0,13.4,1505.2,334.9,-0.8,1.8,2471.246,13.29,0.022,241.2
2023-01-24T20:13:03,42.805,6.029,-0.027,-0.004,0.007,101.0,101.0,101.0,13.4,1505.2,327.5,-0.8,1.8,2471.249,13.29,0.027,261.6
2023-01-24T20:16:03,42.805,6.029,-0.038,-0.002,-0.014,101.0,101.0,101.0,13.3,1505.2,318.1,-0.7,1.8,2471.207,13.29,0.038,267.0
2023-01-24T20:19:03,42.805,6.029,-0.033,0.006,-0.002,101.0,102.0,101.0,13.4,1505.2,323.1,-0.8,1.8,2471.217,13.29,0.033,280.3
2023-01-24T20:22:03,42.805,6.029,-0.013,-0.01,-0.001,101.0,101.0,102.0,13.4,1505.2,332.5,-0.8,1.8,2471.275,13.29,0.016,232.4
2023-01-24T20:25:03,42.805,6.029,-0.052,0.007,-0.033,100.0,102.0,102.0,13.4,1505.2,324.5,-0.8,1.8,2471.224,13.29,0.052,277.7
2023-01-24T20:28:03,42.805,6.029,-0.028,0.008,0.017,101.0,102.0,102.0,13.4,1505.2,328.9,-0.8,1.8,2471.242,13.29,0.029,285.9
2023-01-24T20:31:03,42.805,6.029,-0.045,0.004,0.013,101.0,101.0,101.0,13.4,1505.2,336.6,-0.8,1.8,2471.235,13.29,0.045,275.1
2023-01-24T20:34:03,42.805,6.029,-0.051,-0.011,-0.024,101.0,102.0,101.0,13.4,1505.2,321.0,-0.8,1.8,2471.221,13.29,0.052,257.8
2023-01-24T20:37:03,42.805,6.029,0.0,-0.01,-0.033,102.0,103.0,101.0,13.3,1505.2,321.0,-0.7,1.8,2471.217,13.29,0.01,180.0
2023-01-24T20:40:03,42.805,6.029,-0.03,-0.004,-0.018,102.0,101.0,104.0,13.4,1505.2,335.8,-0.8,1.8,2471.215,13.29,0.03,262.4
2023-01-24T20:43:03,42.805,6.029,-0.019,-0.025,-0.019,101.0,102.0,102.0,13.4,1505.2,327.5,-0.8,1.8,2471.258,13.29,0.031,217.2
2023-01-24T20:46:03,42.805,6.029,-0.028,-0.012,-0.006,101.0,103.0,101.0,13.4,1505.2,335.9,-0.8,1.8,2471.254,13.29,0.03,246.8
2023-01-24T20:49:03,42.805,6.029,-0.021,-0.027,-0.039,102.0,102.0,101.0,13.4,1505.2,321.8,-0.7,1.8,2471.231,13.29,0.034,217.9
2023-01-24T20:52:03,42.805,6.029,-0.022,-0.015,-0.015,103.0,102.0,102.0,13.3,1505.2,324.5,-0.8,1.8,2471.196,13.29,0.026,235.7
2023-01-24T20:55:03,42.805,6.029,-0.009,-0.001,0.012,104.0,102.0,102.0,13.3,1505.2,333.4,-0.7,1.8,2471.184,13.29,0.009,263.7
2023-01-24T20:58:03,42.805,6.029,-0.033,0.008,0.022,102.0,101.0,102.0,13.4,1505.2,320.7,-0.8,1.8,2471.2,13.29,0.033,283.6
2023-01-24T21:04:03,42.805,6.029,-0.034,0.001,0.001,102.0,101.0,102.0,13.4,1505.2,325.0,-0.8,1.8,2471.275,13.29,0.034,271.7
2023-01-24T21:07:03,42.805,6.029,-0.019,-0.007,0.017,102.0,102.0,102.0,13.3,1505.2,322.8,-0.7,1.8,2471.289,13.29,0.02,249.8
2023-01-24T21:10:03,42.805,6.029,-0.021,0.003,-0.01,102.0,101.0,102.0,13.3,1505.2,329.3,-0.8,1.8,2471.263,13.29,0.021,278.1
2023-01-24T21:13:03,42.805,6.029,-0.023,-0.006,-0.004,102.0,101.0,102.0,13.4,1505.2,323.2,-0.7,1.8,2471.251,13.29,0.023,255.4
2023-01-24T21:16:03,42.805,6.029,-0.031,-0.01,-0.035,102.0,101.0,101.0,13.3,1505.2,327.7,-0.8,1.8,2471.214,13.29,0.032,252.1
2023-01-24T21:19:03,42.805,6.029,-0.034,0.004,0.012,101.0,102.0,102.0,13.3,1505.2,337.0,-0.8,1.8,2471.238,13.29,0.034,276.7
2023-01-24T21:22:03,42.805,6.029,-0.039,-0.016,-0.016,102.0,102.0,102.0,13.4,1505.2,329.1,-0.8,1.8,2471.218,13.29,0.042,247.7
2023-01-24T21:25:03,42.805,6.029,-0.003,-0.031,-0.006,102.0,101.0,103.0,13.4,1505.2,329.4,-0.8,1.8,2471.207,13.29,0.031,185.5
2023-01-24T21:28:03,42.805,6.029,-0.034,-0.004,0.003,102.0,102.0,102.0,13.4,1505.2,320.1,-0.7,1.8,2471.233,13.29,0.034,263.3
2023-01-24T21:31:03,42.805,6.029,-0.036,-0.006,0.013,101.0,102.0,102.0,13.3,1505.2,325.0,-0.7,1.8,2471.199,13.29,0.036,260.5
2023-01-24T21:34:03,42.805,6.029,-0.021,-0.025,-0.003,102.0,102.0,102.0,13.4,1505.2,318.6,-0.8,1.8,2471.202,13.29,0.032,220.0
2023-01-24T21:37:03,42.805,6.029,-0.036,-0.005,-0.018,102.0,102.0,102.0,13.3,1505.2,316.6,-0.7,1.8,2471.173,13.29,0.036,262.1
2023-01-24T21:40:03,42.805,6.029,-0.004,-0.007,0.018,102.0,102.0,102.0,13.4,1505.2,315.5,-0.7,1.8,2471.187,13.29,0.008,209.7
2023-01-24T21:43:03,42.805,6.029,-0.039,-0.006,-0.024,102.0,102.0,101.0,13.4,1505.2,320.1,-0.8,1.8,2471.234,13.29,0.039,261.3
2023-01-24T21:46:03,42.805,6.029,-0.061,-0.004,-0.026,102.0,103.0,103.0,13.4,1505.2,325.2,-0.8,1.8,2471.204,13.29,0.061,266.3
2023-01-24T21:49:03,42.805,6.029,-0.023,0.0,-0.003,102.0,102.0,101.0,13.3,1505.2,319.1,-0.8,1.8,2471.219,13.29,0.023,270.0
2023-01-24T21:52:03,42.805,6.029,-0.038,-0.007,-0.014,103.0,102.0,101.0,13.4,1505.2,330.6,-0.8,1.8,2471.2,13.29,0.038,259.6
2023-01-24T21:55:03,42.805,6.029,-0.022,-0.013,0.007,101.0,102.0,102.0,13.4,1505.2,319.2,-0.7,1.8,2471.198,13.29,0.025,239.4
2023-01-24T21:58:03,42.805,6.029,-0.011,-0.012,-0.008,101.0,101.0,102.0,13.3,1505.2,317.3,-0.8,1.9,2471.18,13.29,0.016,222.5
2023-01-24T22:04:03,42.805,6.029,-0.026,0.003,0.014,102.0,102.0,102.0,13.3,1505.2,321.6,-0.8,1.8,2471.259,13.29,0.026,276.6
2023-01-24T22:07:03,42.805,6.029,-0.046,0.012,-0.003,102.0,101.0,101.0,13.3,1505.2,336.8,-0.7,1.8,2471.224,13.29,0.047,284.6
2023-01-24T22:10:03,42.805,6.029,-0.031,-0.009,-0.024,103.0,101.0,102.0,13.4,1505.2,324.2,-0.8,1.8,2471.201,13.29,0.032,253.8
2023-01-24T22:13:03,42.805,6.029,-0.031,-0.019,-0.014,101.0,102.0,102.0,13.3,1505.2,322.5,-0.8,1.8,2471.24,13.29,0.036,238.5
2023-01-24T22:16:03,42.805,6.029,-0.012,-0.02,-0.013,102.0,102.0,102.0,13.4,1505.2,333.8,-0.8,1.8,2471.208,13.29,0.023,211.0
2023-01-24T22:19:03,42.805,6.029,-0.015,-0.023,-0.01,103.0,103.0,102.0,13.4,1505.2,322.6,-0.8,1.8,2471.209,13.29,0.027,213.1
2023-01-24T22:22:03,42.805,6.029,-0.028,-0.003,-0.031,101.0,101.0,101.0,13.4,1505.2,318.7,-0.8,1.8,2471.193,13.29,0.028,263.9
2023-01-24T22:25:03,42.805,6.029,-0.021,0.0,0.011,103.0,101.0,101.0,13.3,1505.2,339.5,-0.8,1.8,2471.159,13.29,0.021,270.0
2023-01-24T22:28:03,42.805,6.029,-0.011,-0.029,-0.033,103.0,100.0,101.0,13.3,1505.2,317.7,-0.8,1.8,2471.183,13.29,0.031,200.8
2023-01-24T22:31:03,42.805,6.029,0.007,-0.005,-0.021,102.0,104.0,101.0,13.4,1505.2,326.7,-0.7,1.8,2471.205,13.29,0.008,125.5
2023-01-24T22:34:03,42.805,6.029,-0.025,-0.006,-0.004,103.0,103.0,101.0,13.4,1505.2,330.8,-0.8,1.8,2471.174,13.29,0.025,256.5
2023-01-24T22:37:03,42.805,6.029,-0.031,-0.003,-0.011,101.0,102.0,101.0,13.4,1505.2,329.4,-0.7,1.8,2471.193,13.29,0.031,264.5
2023-01-24T22:40:03,42.805,6.029,-0.026,-0.019,-0.003,101.0,101.0,101.0,13.4,1505.2,325.5,-0.8,1.8,2471.17,13.29,0.032,233.8
2023-01-24T22:43:03,42.805,6.029,-0.026,0.006,0.011,103.0,103.0,101.0,13.3,1505.2,332.2,-0.8,1.8,2471.194,13.29,0.026,283.0
2023-01-24T22:46:03,42.805,6.029,-0.032,0.01,-0.02,102.0,102.0,102.0,13.3,1505.2,338.0,-0.7,1.8,2471.18,13.29,0.033,287.4
2023-01-24T22:49:03,42.805,6.029,-0.033,-0.003,0.007,102.0,102.0,102.0,13.4,1505.2,332.3,-0.8,1.8,2471.188,13.29,0.033,264.8
2023-01-24T22:52:03,42.805,6.029,-0.003,-0.02,-0.003,101.0,103.0,102.0,13.3,1505.2,321.2,-0.8,1.8,2471.194,13.29,0.02,188.5
2023-01-24T22:55:03,42.805,6.029,-0.014,0.0,0.028,101.0,101.0,102.0,13.4,1505.2,317.6,-0.7,1.8,2471.131,13.29,0.014,270.0
2023-01-24T22:58:03,42.805,6.029,-0.02,0.005,0.009,102.0,101.0,102.0,13.3,1505.2,318.1,-0.8,1.8,2471.127,13.29,0.02,284.0